Location: Bartshausen
(51.8454°N, 9.8167°E)
Time: 23:08:17
(UTC+00:00)

USA 59 Rocket - Pass Details

Date: 08 November 2025
Orbit: 370 x 1679 km, 63.3° (Epoch: 04 December)

Event Time Altitude Azimuth Distance (km) Brightness Sun altitude
Exits shadow 04:47:28 37° 255° (WSW) 648 -0.3 -15.6°
Maximum altitude 04:48:28 60° 318° (NW) 455 -0.9 -15.5°
Drops below altitude 10° 04:51:22 10° 40° (NE) 1,383 2.3 -15.0°
Sets 04:53:20 0° 44° (NE) 2,241 3.5 -14.7°
